GW0692 Weather Reports


Display with metric or nautical units.
time (UTC)temp
F
wind
direction
speed
MPH
gust
MPH
rain 1hr
in
rain 24hr
in
rain mn
in
humidity
%
barometer
mb
20260831140345 64 233 4.0 5.0 0.00 0.00 0.00 62 1026.6
20260831135844 64 224 1.0 2.0 0.00 0.00 0.00 61 1026.9
20260831135339 65 115 3.0 3.0 0.00 0.00 0.00 61 1026.5
20260831134835 66 187 2.0 3.0 0.00 0.00 0.00 59 1026.6
20260831134331 65 327 3.0 5.0 0.00 0.00 0.00 59 1026.5
20260831133831 65 344 3.0 5.0 0.00 0.00 0.00 60 1026.4
20260831133330 64 231 3.0 3.0 0.00 0.00 0.00 61 1026.3
20260831132825 64 241 1.0 2.0 0.00 0.00 0.00 61 1026.3
20260831132320 63 246 3.0 3.0 0.00 0.00 0.00 62 1026.0
20260831131815 63 279 1.0 2.0 0.00 0.00 0.00 63 1026.1
20260831131311 62 205 2.0 2.0 0.00 0.00 0.00 63 1026.0
20260831130806 62 297 2.0 3.0 0.00 0.00 0.00 63 1026.1
20260831130301 62 257 6.0 9.0 0.00 0.00 0.00 63 1025.9
20260831125800 62 307 3.0 7.0 0.00 0.00 0.00 62 1026.0
20260831125255 62 235 1.0 2.0 0.00 0.00 0.00 63 1026.1
20260831124750 62 231 3.0 5.0 0.00 0.00 0.00 63 1025.9
20260831124247 62 253 3.0 5.0 0.00 0.00 0.00 63 1026.0
20260831123746 62 226 3.0 5.0 0.00 0.00 0.00 63 1025.9
20260831123245 62 275 2.0 3.0 0.00 0.00 0.00 63 1026.0
20260831122739 62 254 3.0 7.0 0.00 0.00 0.00 64 1025.8
20260831122235 61 162 3.0 3.0 0.00 0.00 0.00 64 1025.6
20260831121734 61 122 4.0 7.0 0.00 0.00 0.00 64 1025.9
20260831121231 62 252 2.0 2.0 0.00 0.00 0.00 64 1025.6
20260831120726 62 253 2.0 3.0 0.00 0.00 0.00 64 1025.6
20260831120221 62 221 3.0 7.0 0.00 0.00 0.00 63 1025.4
20260831115717 61 157 1.0 2.0 0.00 0.00 0.00 63 1025.8
20260831115213 62 208 2.0 2.0 0.00 0.00 0.00 63 1025.5
20260831114712 62 295 2.0 3.0 0.00 0.00 0.00 63 1025.8
20260831114211 62 272 3.0 3.0 0.00 0.00 0.00 62 1025.5
20260831113707 62 21 3.0 5.0 0.00 0.00 0.00 61 1025.6
20260831113201 62 251 4.0 5.0 0.00 0.00 0.00 58 1025.6
20260831112700 63 9 0.0 2.0 0.00 0.00 0.00 55 1025.6
20260831112156 63 246 2.0 2.0 0.00 0.00 0.00 54 1025.9
20260831111651 63 224 3.0 3.0 0.00 0.00 0.00 54 1025.8
20260831111148 63 229 2.0 2.0 0.00 0.00 0.00 53 1025.8
20260831110643 64 239 2.0 3.0 0.00 0.00 0.00 53 1025.8
20260831110137 64 263 2.0 3.0 0.00 0.00 0.00 52 1026.0
20260831105637 64 239 2.0 2.0 0.00 0.00 0.00 52 1025.9
20260831105132 64 240 4.0 5.0 0.00 0.00 0.00 52 1025.8
20260831104627 64 273 4.0 5.0 0.00 0.00 0.00 53 1025.9
20260831104124 63 308 3.0 3.0 0.00 0.00 0.00 53 1025.9
20260831103619 63 245 2.0 2.0 0.00 0.00 0.00 54 1025.9
20260831103114 63 246 4.0 7.0 0.00 0.00 0.00 54 1025.9
20260831102609 63 240 3.0 3.0 0.00 0.00 0.00 55 1025.9
20260831102104 63 242 1.0 2.0 0.00 0.00 0.00 54 1025.4
20260831101603 63 234 3.0 3.0 0.00 0.00 0.00 55 1025.8
20260831101100 63 241 2.0 3.0 0.00 0.00 0.00 55 1025.5
20260831100555 63 243 1.0 2.0 0.00 0.00 0.00 55 1025.8
20260831100052 63 235 3.0 3.0 0.00 0.00 0.00 54 1025.8
20260831095549 64 257 4.0 5.0 0.00 0.00 0.00 55 1025.8
20260831095044 64 236 3.0 3.0 0.00 0.00 0.00 55 1025.6
20260831094540 64 242 2.0 2.0 0.00 0.00 0.00 54 1025.6
20260831094036 65 235 0.0 0.0 0.00 0.00 0.00 54 1025.5
20260831093531 65 264 3.0 5.0 0.00 0.00 0.00 53 1025.6
20260831093028 65 240 2.0 2.0 0.00 0.00 0.00 53 1025.5
20260831092523 65 245 1.0 2.0 0.00 0.00 0.00 53 1025.0
20260831092019 66 244 0.0 0.0 0.00 0.00 0.00 52 1025.1
20260831091513 66 247 1.0 2.0 0.00 0.00 0.00 52 1025.3
20260831091009 66 252 0.0 2.0 0.00 0.00 0.00 52 1025.1
20260831090504 67 243 0.0 0.0 0.00 0.00 0.00 51 1025.1
20260831090000 67 245 0.0 0.0 0.00 0.00 0.00 51 1025.3
20260831085455 67 246 0.0 2.0 0.00 0.00 0.00 51 1025.4
20260831084954 66 243 0.0 0.0 0.00 0.00 0.00 51 1025.1
20260831084451 67 246 1.0 2.0 0.00 0.00 0.00 51 1025.0
20260831083947 67 249 2.0 2.0 0.00 0.00 0.00 51 1025.3
20260831083441 67 251 2.0 2.0 0.00 0.00 0.00 51 1025.0
20260831082936 67 243 2.0 2.0 0.00 0.00 0.00 51 1025.0
20260831082435 66 238 3.0 3.0 0.00 0.00 0.00 51 1025.1
20260831081931 67 239 2.0 3.0 0.00 0.00 0.00 51 1025.1
20260831081426 67 246 2.0 2.0 0.00 0.00 0.00 51 1025.4
20260831080923 66 252 2.0 2.0 0.00 0.00 0.00 51 1025.0
20260831080417 67 251 2.0 2.0 0.00 0.00 0.00 50 1025.4
20260831075913 67 260 3.0 5.0 0.00 0.00 0.00 50 1025.3
20260831075408 67 238 3.0 3.0 0.00 0.00 0.00 49 1025.5
20260831074903 68 264 5.0 5.0 0.00 0.00 0.00 49 1025.3
20260831074402 68 280 5.0 7.0 0.00 0.00 0.00 49 1024.9
20260831073857 67 270 5.0 5.0 0.00 0.00 0.00 49 1025.3
20260831073356 67 264 3.0 3.0 0.00 0.00 0.00 48 1025.4
20260831072852 67 265 2.0 2.0 0.00 0.00 0.00 48 1025.8
20260831072347 67 251 2.0 2.0 0.00 0.00 0.00 48 1025.5
20260831071843 68 243 0.0 0.0 0.00 0.00 0.00 48 1025.8
20260831071342 68 242 2.0 2.0 0.00 0.00 0.00 47 1025.6
20260831070837 68 242 5.0 5.0 0.00 0.00 0.00 47 1025.3
20260831070336 68 239 3.0 3.0 0.00 0.00 0.00 46 1025.6
20260831065836 68 247 3.0 3.0 0.00 0.00 0.00 46 1025.6
20260831065333 68 275 5.0 5.0 0.00 0.00 0.00 44 1025.5
20260831064829 69 282 3.0 3.0 0.00 0.00 0.00 43 1025.5
20260831064324 70 260 1.0 2.0 0.00 0.00 0.00 42 1025.3
20260831063820 70 243 3.0 3.0 0.00 0.00 0.00 41 1025.4
20260831063320 69 242 1.0 2.0 0.00 0.00 0.00 42 1025.6
20260831062815 69 246 0.0 2.0 0.00 0.00 0.00 42 1025.4
20260831062310 69 245 1.0 2.0 0.00 0.00 0.00 43 1025.8
20260831061809 69 223 1.0 2.0 0.00 0.00 0.00 43 1025.4
20260831061303 69 241 0.0 0.0 0.00 0.00 0.00 42 1025.3
20260831060759 69 245 0.0 2.0 0.00 0.00 0.00 43 1025.0
20260831060259 69 240 2.0 2.0 0.00 0.00 0.00 42 1025.4
20260831055758 70 240 0.0 0.0 0.00 0.00 0.00 41 1025.3
20260831055253 71 243 0.0 2.0 0.00 0.00 0.00 41 1025.3
20260831054748 71 244 0.0 2.0 0.00 0.00 0.00 41 1025.3
20260831054243 71 240 0.0 0.0 0.00 0.00 0.00 41 1025.4
20260831053742 71 255 2.0 2.0 0.00 0.00 0.00 40 1025.5
20260831053241 71 245 0.0 2.0 0.00 0.00 0.00 40 1025.3
20260831052736 71 269 0.0 0.0 0.00 0.00 0.00 41 1024.9
20260831052235 71 247 0.0 0.0 0.00 0.00 0.00 41 1025.1
20260831051733 71 240 1.0 2.0 0.00 0.00 0.00 41 1025.4
20260831051232 70 241 2.0 2.0 0.00 0.00 0.00 41 1025.1
20260831050727 70 242 0.0 2.0 0.00 0.00 0.00 41 1024.9
20260831050226 70 241 0.0 2.0 0.00 0.00 0.00 41 1025.4
20260831045721 70 253 1.0 2.0 0.00 0.00 0.00 41 1025.3
20260831045215 70 245 1.0 2.0 0.00 0.00 0.00 41 1025.0
20260831044710 71 242 0.0 0.0 0.00 0.00 0.00 40 1025.0
20260831044205 72 247 1.0 2.0 0.00 0.00 0.00 40 1025.1
20260831043701 71 243 1.0 2.0 0.00 0.00 0.00 40 1024.9
20260831043156 71 244 1.0 2.0 0.00 0.00 0.00 40 1025.0
20260831042655 71 238 1.0 2.0 0.00 0.00 0.00 40 1024.9
20260831042150 71 241 0.0 0.0 0.00 0.00 0.00 40 1024.9
20260831041644 71 241 0.0 0.0 0.00 0.00 0.00 40 1025.0
20260831041139 71 243 1.0 2.0 0.00 0.00 0.00 40 1024.9
20260831040634 70 243 0.0 0.0 0.00 0.00 0.00 40 1025.1
20260831040133 70 247 0.0 2.0 0.00 0.00 0.00 41 1025.0
20260831035632 70 241 1.0 2.0 0.00 0.00 0.00 41 1025.0
20260831035126 70 243 1.0 2.0 0.00 0.00 0.00 42 1025.1
20260831034625 70 259 2.0 2.0 0.00 0.00 0.00 42 1025.0
20260831034120 70 250 2.0 2.0 0.00 0.00 0.00 42 1025.0
20260831033616 70 257 3.0 3.0 0.00 0.00 0.00 42 1025.3
20260831033111 71 238 2.0 3.0 0.00 0.00 0.00 42 1025.0
20260831032610 71 253 5.0 7.0 0.00 0.00 0.00 42 1024.8
20260831032106 71 231 5.0 7.0 0.00 0.00 0.00 42 1024.9
20260831031601 70 264 3.0 3.0 0.00 0.00 0.00 43 1025.0
20260831031059 70 242 3.0 5.0 0.00 0.00 0.00 44 1024.8
20260831030559 71 232 2.0 3.0 0.00 0.00 0.00 44 1025.1
20260831030058 71 235 4.0 5.0 0.00 0.00 0.00 44 1024.8
20260831025556 71 248 6.0 7.0 0.00 0.00 0.00 44 1024.9
20260831025052 71 250 3.0 3.0 0.00 0.00 0.00 44 1024.4
20260831024548 71 261 4.0 5.0 0.00 0.00 0.00 43 1024.9
20260831024046 71 235 4.0 7.0 0.00 0.00 0.00 43 1024.5
20260831023545 71 231 3.0 3.0 0.00 0.00 0.00 43 1024.4
20260831023039 71 234 3.0 3.0 0.00 0.00 0.00 42 1024.5
20260831022539 72 265 4.0 5.0 0.00 0.00 0.00 42 1024.5
20260831022034 72 235 3.0 3.0 0.00 0.00 0.00 41 1024.6
20260831021532 73 227 5.0 7.0 0.00 0.00 0.00 41 1024.5
20260831021029 73 226 7.0 9.0 0.00 0.00 0.00 41 1024.5
20260831020524 74 222 9.0 12.0 0.00 0.00 0.00 40 1024.1
20260831020019 74 265 4.0 5.0 0.00 0.00 0.00 40 1024.0
20260831015515 74 249 5.0 7.0 0.00 0.00 0.00 39 1024.1
20260831015009 75 254 3.0 3.0 0.00 0.00 0.00 39 1024.1
20260831014504 75 234 4.0 7.0 0.00 0.00 0.00 39 1024.1
20260831013959 75 236 7.0 12.0 0.00 0.00 0.00 38 1024.3
20260831013456 76 239 4.0 5.0 0.00 0.00 0.00 36 1024.0
20260831012949 76 241 1.0 2.0 0.00 0.00 0.00 34 1024.1
20260831012445 76 250 3.0 3.0 0.00 0.00 0.00 34 1024.1
20260831011944 76 255 1.0 2.0 0.00 0.00 0.00 34 1023.9
20260831011439 77 254 2.0 3.0 0.00 0.00 0.00 33 1023.8
20260831010935 77 241 3.0 3.0 0.00 0.00 0.00 33 1024.0
20260831010430 77 240 2.0 3.0 0.00 0.00 0.00 33 1023.9
20260831005925 77 242 2.0 2.0 0.00 0.00 0.00 33 1024.0
20260831005421 77 249 1.0 2.0 0.00 0.00 0.00 32 1023.9
20260831004920 78 240 2.0 2.0 0.00 0.00 0.00 32 1023.9
20260831004417 78 238 2.0 2.0 0.00 0.00 0.00 32 1024.0
20260831003912 78 238 0.0 2.0 0.00 0.00 0.00 32 1024.1
20260831003408 78 302 3.0 5.0 0.00 0.00 0.00 32 1024.3
20260831002907 78 285 4.0 7.0 0.00 0.00 0.00 32 1024.0
20260831002407 79 243 5.0 7.0 0.00 0.00 0.00 32 1024.0
20260831001902 79 236 2.0 3.0 0.00 0.00 0.00 32 1024.3
20260831001357 79 240 2.0 2.0 0.00 0.00 0.00 31 1024.1
20260831000855 79 253 2.0 2.0 0.00 0.00 0.00 32 1024.1
20260831000350 80 236 1.0 2.0 0.00 0.00 0.00 32 1024.3
20260830235848 80 230 2.0 3.0 0.00 0.00 0.00 31 1024.4
20260830235343 80 234 2.0 3.0 0.00 0.00 0.00 31 1024.8
20260830234838 80 234 2.0 3.0 0.00 0.00 0.00 31 1024.3
20260830234334 80 236 1.0 2.0 0.00 0.00 0.00 30 1024.3
20260830233830 80 250 2.0 2.0 0.00 0.00 0.00 30 1024.3
20260830233325 80 253 6.0 9.0 0.00 0.00 0.00 30 1024.1
20260830232821 80 263 1.0 2.0 0.00 0.00 0.00 30 1024.3
20260830232316 81 320 3.0 5.0 0.00 0.00 0.00 30 1024.1
20260830231812 81 262 4.0 5.0 0.00 0.00 0.00 30 1024.0
20260830231307 81 255 3.0 3.0 0.00 0.00 0.00 29 1024.3
20260830230801 81 241 0.0 2.0 0.00 0.00 0.00 29 1024.0
20260830230257 81 242 3.0 3.0 0.00 0.00 0.00 29 1024.0
20260830225756 81 255 2.0 2.0 0.00 0.00 0.00 29 1024.0
20260830225251 82 263 7.0 9.0 0.00 0.00 0.00 30 1023.9
20260830224750 84 243 5.0 9.0 0.00 0.00 0.00 30 1024.0
20260830224246 84 268 1.0 2.0 0.00 0.00 0.00 28 1024.0
20260830223742 83 289 6.0 10.0 0.00 0.00 0.00 30 1024.1
20260830223238 82 254 6.0 9.0 0.00 0.00 0.00 30 1024.0
20260830222732 84 222 3.0 3.0 0.00 0.00 0.00 31 1024.1
20260830222227 85 253 10.0 15.0 0.00 0.00 0.00 30 1023.9
20260830221722 84 261 10.0 14.0 0.00 0.00 0.00 31 1024.1
20260830221219 83 259 4.0 5.0 0.00 0.00 0.00 33 1024.1
20260830220709 83 286 9.0 14.0 0.00 0.00 0.00 32 1024.5
20260830220208 82 273 4.0 5.0 0.00 0.00 0.00 33 1024.4
20260830215707 81 238 7.0 12.0 0.00 0.00 0.00 34 1024.4
20260830215202 82 230 12.0 21.0 0.00 0.00 0.00 34 1024.5
20260830214657 82 217 4.0 5.0 0.00 0.00 0.00 33 1024.5
20260830214151 85 215 5.0 9.0 0.00 0.00 0.00 31 1024.4
20260830213650 86 258 7.0 9.0 0.00 0.00 0.00 30 1024.6
20260830213146 84 243 5.0 9.0 0.00 0.00 0.00 32 1024.8
20260830212642 82 247 6.0 7.0 0.00 0.00 0.00 32 1025.0
20260830212136 82 228 9.0 10.0 0.00 0.00 0.00 32 1025.0
20260830211632 84 277 4.0 5.0 0.00 0.00 0.00 31 1024.8
20260830211131 82 262 7.0 9.0 0.00 0.00 0.00 32 1024.8
20260830210627 83 306 7.0 9.0 0.00 0.00 0.00 31 1024.8
20260830210126 83 267 8.0 12.0 0.00 0.00 0.00 31 1025.1
20260830205623 81 243 3.0 3.0 0.00 0.00 0.00 33 1025.1
20260830205119 81 244 9.0 12.0 0.00 0.00 0.00 35 1025.3
20260830204618 81 261 8.0 10.0 0.00 0.00 0.00 34 1025.4
20260830204117 82 280 5.0 7.0 0.00 0.00 0.00 32 1025.5
20260830203614 83 252 7.0 10.0 0.00 0.00 0.00 33 1025.4
20260830203113 81 275 6.0 7.0 0.00 0.00 0.00 31 1025.6
20260830202608 82 262 8.0 10.0 0.00 0.00 0.00 31 1025.3
20260830202103 82 314 8.0 14.0 0.00 0.00 0.00 32 1025.4
20260830201602 83 261 6.0 7.0 0.00 0.00 0.00 32 1025.6
20260830201052 83 338 4.0 7.0 0.00 0.00 0.00 31 1025.6
20260830200548 81 218 5.0 9.0 0.00 0.00 0.00 33 1025.9
20260830200046 82 257 10.0 12.0 0.00 0.00 0.00 32 1025.9
20260830195543 83 241 5.0 10.0 0.00 0.00 0.00 32 1025.9
20260830195040 82 307 7.0 15.0 0.00 0.00 0.00 33 1025.9
20260830194539 82 221 5.0 7.0 0.00 0.00 0.00 33 1025.9
20260830194039 82 280 8.0 12.0 0.00 0.00 0.00 32 1026.1
20260830193538 82 229 6.0 10.0 0.00 0.00 0.00 32 1025.9
20260830193034 82 290 8.0 10.0 0.00 0.00 0.00 33 1026.0
20260830192530 81 248 4.0 5.0 0.00 0.00 0.00 33 1026.1
20260830192029 80 217 7.0 7.0 0.00 0.00 0.00 33 1026.0
20260830191525 82 292 8.0 9.0 0.00 0.00 0.00 33 1026.0
20260830191020 81 251 5.0 7.0 0.00 0.00 0.00 34 1026.3
20260830190515 82 241 6.0 9.0 0.00 0.00 0.00 33 1026.4
20260830190010 80 232 5.0 7.0 0.00 0.00 0.00 34 1026.5
20260830185504 80 255 7.0 9.0 0.00 0.00 0.00 34 1026.1
20260830185000 79 238 7.0 9.0 0.00 0.00 0.00 36 1026.5
20260830184459 80 208 8.0 12.0 0.00 0.00 0.00 36 1026.3
20260830183953 80 226 7.0 12.0 0.00 0.00 0.00 36 1026.6
20260830183448 80 215 13.0 17.0 0.00 0.00 0.00 36 1026.5
20260830182943 79 236 10.0 14.0 0.00 0.00 0.00 36 1026.5
20260830182439 79 248 14.0 21.0 0.00 0.00 0.00 36 1026.5
20260830181935 80 242 12.0 15.0 0.00 0.00 0.00 35 1026.5
20260830181431 79 227 9.0 10.0 0.00 0.00 0.00 35 1026.5
20260830180925 80 285 8.0 12.0 0.00 0.00 0.00 34 1026.5
20260830180424 80 234 10.0 14.0 0.00 0.00 0.00 34 1026.4
20260830175923 80 232 9.0 10.0 0.00 0.00 0.00 34 1026.9
20260830175423 80 227 6.0 9.0 0.00 0.00 0.00 35 1026.5
20260830174918 80 238 2.0 2.0 0.00 0.00 0.00 35 1026.5
20260830174414 79 243 6.0 9.0 0.00 0.00 0.00 36 1026.5
20260830173909 80 262 6.0 7.0 0.00 0.00 0.00 35 1026.9
20260830173405 80 231 5.0 9.0 0.00 0.00 0.00 35 1026.5
20260830172900 78 234 3.0 3.0 0.00 0.00 0.00 37 1026.6
20260830172356 78 248 3.0 3.0 0.00 0.00 0.00 36 1026.8
20260830171852 79 282 5.0 7.0 0.00 0.00 0.00 37 1026.9
20260830171348 79 237 5.0 5.0 0.00 0.00 0.00 37 1027.3
20260830170842 78 258 3.0 5.0 0.00 0.00 0.00 39 1027.1
20260830170342 77 259 8.0 12.0 0.00 0.00 0.00 39 1027.1
20260830165840 77 274 9.0 14.0 0.00 0.00 0.00 40 1027.3
20260830165337 76 239 5.0 7.0 0.00 0.00 0.00 41 1027.0
20260830164833 75 275 7.0 10.0 0.00 0.00 0.00 43 1027.3
20260830164328 75 265 7.0 10.0 0.00 0.00 0.00 43 1027.3
20260830163825 75 266 11.0 17.0 0.00 0.00 0.00 42 1027.5
20260830163320 75 247 7.0 10.0 0.00 0.00 0.00 43 1027.6
20260830162815 75 232 8.0 12.0 0.00 0.00 0.00 44 1027.3
20260830162312 75 271 4.0 5.0 0.00 0.00 0.00 43 1027.3
20260830161812 74 230 4.0 7.0 0.00 0.00 0.00 45 1027.3
20260830161310 74 277 8.0 10.0 0.00 0.00 0.00 44 1027.9
20260830160806 73 230 5.0 7.0 0.00 0.00 0.00 46 1027.6
20260830160301 72 221 5.0 7.0 0.00 0.00 0.00 47 1027.6
20260830155757 72 236 5.0 7.0 0.00 0.00 0.00 49 1027.5
20260830155253 71 232 7.0 9.0 0.00 0.00 0.00 51 1027.4
20260830154753 71 227 6.0 9.0 0.00 0.00 0.00 53 1027.6
20260830154249 69 261 10.0 14.0 0.00 0.00 0.00 54 1027.5
20260830153745 69 277 7.0 12.0 0.00 0.00 0.00 55 1027.3
20260830153241 69 222 10.0 15.0 0.00 0.00 0.00 55 1027.4
20260830152739 69 238 8.0 12.0 0.00 0.00 0.00 55 1027.5
20260830152234 69 284 17.0 26.0 0.00 0.00 0.00 56 1027.3
20260830151734 69 265 8.0 10.0 0.00 0.00 0.00 55 1027.3
20260830151233 69 265 8.0 12.0 0.00 0.00 0.00 55 1027.3
20260830150729 70 311 11.0 14.0 0.00 0.00 0.00 54 1027.5
20260830150228 70 271 7.0 10.0 0.00 0.00 0.00 53 1027.3
20260830145723 70 236 6.0 7.0 0.00 0.00 0.00 54 1027.3
20260830145218 70 234 7.0 10.0 0.00 0.00 0.00 54 1027.3
20260830144713 69 272 7.0 9.0 0.00 0.00 0.00 54 1027.1
20260830144209 69 217 5.0 7.0 0.00 0.00 0.00 54 1027.3
20260830143705 69 263 8.0 12.0 0.00 0.00 0.00 55 1027.3
20260830143202 69 212 6.0 10.0 0.00 0.00 0.00 55 1027.0
20260830142658 68 228 5.0 7.0 0.00 0.00 0.00 56 1027.3
20260830142153 68 250 7.0 10.0 0.00 0.00 0.00 56 1026.9
20260830141648 67 246 7.0 9.0 0.00 0.00 0.00 58 1027.0
20260830141143 67 240 13.0 19.0 0.00 0.00 0.00 57 1027.1